This is the latest recevied weather packets stored in our database for station/object KC1TEM-13. If no packets are shown the sender has not sent any weather packets the latest 10 day(s).
| Time | Temp. | Humidity | Pressure | Rain* | Wind** | Luminosity | Snow |
|---|---|---|---|---|---|---|---|
| 1788431507 | 16.67° C | 98% | 1016.5 hPa | 0 mm | - | 3 W/m² | - |
| 1788431202 | 16.67° C | 98% | 1016.5 hPa | 1.78 mm | - | 2 W/m² | - |
| 1788430902 | 16.67° C | 98% | 1016.3 hPa | 3.05 mm | - | 2 W/m² | - |
| 1788430601 | 16.67° C | 98% | 1016.4 hPa | 4.83 mm | - | 1 W/m² | - |
| 1788430302 | 16.67° C | 98% | 1016.5 hPa | 6.6 mm | - | 0 W/m² | - |
| 1788429997 | 16.67° C | 98% | 1016.5 hPa | 3.56 mm | - | 0 W/m² | - |
| 1788429696 | 16.67° C | 98% | 1016.7 hPa | 0.51 mm | - | 0 W/m² | - |
| 1788429394 | 16.67° C | 98% | 1016.5 hPa | 1.27 mm | - | 0 W/m² | - |
| 1788429094 | 16.67° C | 98% | 1016.5 hPa | 1.27 mm | - | 0 W/m² | - |
| 1788428789 | 16.67° C | 98% | 1016.6 hPa | 0 mm | - | 0 W/m² | - |
| 1788428485 | 16.67° C | 98% | 1016.6 hPa | 0.51 mm | - | 0 W/m² | - |
| 1788428180 | 16.67° C | 98% | 1016.7 hPa | 1.78 mm | - | 0 W/m² | - |
| 1788427875 | 16.67° C | 98% | 1016.6 hPa | 0.51 mm | - | 0 W/m² | - |
| 1788427575 | 16.67° C | 97% | 1016.7 hPa | 1.27 mm | - | 0 W/m² | - |
| 1788427269 | 16.67° C | 97% | 1017 hPa | 1.78 mm | - | 0 W/m² | - |
| 1788426968 | 16.67° C | 97% | 1017.2 hPa | 0.51 mm | - | 0 W/m² | - |
| 1788426662 | 16.67° C | 97% | 1017.1 hPa | 0.51 mm | - | 0 W/m² | - |
| 1788426359 | 16.67° C | 97% | 1016.8 hPa | 0.51 mm | - | 0 W/m² | - |
| 1788426057 | 17.22° C | 96% | 1016.8 hPa | 0 mm | - | 0 W/m² | - |
| 1788425755 | 17.22° C | 95% | 1016.9 hPa | 0.51 mm | - | 0 W/m² | - |
| 1788425452 | 17.22° C | 95% | 1017 hPa | 4.83 mm | - | 0 W/m² | - |
| 1788425149 | 17.22° C | 93% | 1016.7 hPa | 9.65 mm | - | 0 W/m² | - |
| 1788424844 | 17.78° C | 91% | 1016.8 hPa | 4.32 mm | - | 0 W/m² | - |
| 1788424540 | 17.78° C | 90% | 1016.9 hPa | 0 mm | - | 0 W/m² | - |
| 1788424240 | 17.78° C | 91% | 1016.4 hPa | 0 mm | - | 0 W/m² | - |
* Rain latest hour (hover to see other rain measurements)
** Current wind speed in m/s (hover to see current wind gust speed)